COSMOS 1948 (GLONASS)

Satellite information

Favourite Embed

Satellite Type and Status

PAYLOADIN ORBIT

Key statistics

Satellite COSMOS 1948 (GLONASS) at a glance.

Uptime

13721

Days in orbit

Revolutions

≈ 2.1

Per day

Orbit

MEO

Medium Earth Orbit

Inclination

64.8

Latest

Satellite identification and parameters

Extended collection of information and parameters for COSMOS 1948 (GLONASS).

Object identification

Identified? True

Debris? False

Object name: COSMOS 1948 (GLONASS)

International designator: 1988-043C

Object number (NORAD): 19165

Object ID (CCSDS): 19165

Country: COMMONWEALTH OF INDEPENDENT STATES (CIS)

Current information (Y/N): Y

RCS size: LARGE

Orbital parameters

Period: 675.731 minutes

Inclination: 64.8461 deg

SMA: 25507.978 km

Apoapsis: 19136.796 km

Periapsis: 19122.891 km

RAAN: 79.8142 deg

Eccentricy: 0.00027255

Argument of periapsis: 308.1414 deg

Mean anomaly: 134.2736 deg

Mean motion: 2.13102577 rev/day

Mean motion (dot): -0.00000014 rev/day2

B* drag term: 0.0 1/REarth

Two-line elements (TLE)

Creation date: Dec. 9, 2025, 5:41 p.m.

Reference frame: TEME

Reference center: EARTH

Epoch: Dec. 9, 2025, 8:53 a.m. UTC

TLE line 0: 0 COSMOS 1948 (GLONASS)

TLE line 1: 1 19165U 88043C 25343.37067167 -.00000014 00000-0 00000-0 0 9995

TLE line 2: 2 19165 64.8461 79.8142 0002726 308.1414 134.2736 2.13102577291963

Live tracking on map

Real-time ground track for satellite COSMOS 1948 (GLONASS).

In-orbit conjunctions

A list of the most updated potential collisions computed for object COSMOS 1948 (GLONASS).

Target Orbit TCA Probability of collision Miss distance Type
COSMOS 2024 (ETALON 2) MEO 2025-05-18 12:00:08 TBA 4412.0 (m) PAYLOAD

Associated space launch

GLONASS navigation satellites

COSMOS 1948 (GLONASS) was lifted into orbit during the mission ‘Proton | Uragan 26 to 28’, on board a Proton space rocket.

The launch took place on May 21, 1988, 5:57 p.m. from 200/39 (200L).

For more information about the launch, click the button.

Launch to space Proton | Uragan 26 to 28
Proton | Uragan 26 to 28

Agency: N/A

Status: Launch Successful

Launch date: May 21, 1988, 5:57 p.m. UTC

Rocket: Proton

Launch pad: 200/39 (200L)

Location: Baikonur Cosmodrome, Republic of Kazakhstan

...

Latest news about this satellite

There are no fresh news available about this satellite. Check back as we update our databases every day.


Newsletter sign-up

Weekly statistics, charts and insights to help you stay on top of the space industry.